DELTA 1 DEB

Satellite information

Favourite Embed

Satellite Type and Status

DEBRISIN ORBIT

Key statistics

Satellite DELTA 1 DEB at a glance.

Uptime

18588

Days in orbit

Revolutions

≈ 14.5

Per day

Orbit

SSO

Sun Synchronous Orbit

Inclination

97.6

Latest

Satellite identification and parameters

Extended collection of information and parameters for DELTA 1 DEB.

Object identification

Identified? True

Debris? True

Object name: DELTA 1 DEB

International designator: 1975-004BP

Object number (NORAD): 8981

Object ID (CCSDS): 8981

Country: UNITED STATES OF AMERICA (US)

Current information (Y/N): Y

RCS size: SMALL

Orbital parameters

Period: 99.454 minutes

Inclination: 97.6409 deg

SMA: 7110.629 km

Apoapsis: 813.197 km

Periapsis: 651.792 km

RAAN: 159.7225 deg

Eccentricy: 0.01134956

Argument of periapsis: 5.7938 deg

Mean anomaly: 354.454 deg

Mean motion: 14.47907113 rev/day

Mean motion (dot): 0.00003423 rev/day2

B* drag term: 0.00086188906 1/REarth

Two-line elements (TLE)

Creation date: Dec. 11, 2025, 7:14 p.m.

Reference frame: TEME

Reference center: EARTH

Epoch: Dec. 11, 2025, 10:25 a.m. UTC

TLE line 0: 0 DELTA 1 DEB

TLE line 1: 1 08981U 75004BP 25345.43419486 .00003423 00000-0 86189-3 0 9997

TLE line 2: 2 08981 97.6409 159.7225 0113496 5.7938 354.4540 14.47907113588564

Live tracking on map

Real-time ground track for satellite DELTA 1 DEB.

In-orbit conjunctions

A list of the most updated potential collisions computed for object DELTA 1 DEB.

Target Orbit TCA Probability of collision Miss distance Type
COSMOS 1867 COOLANT LEO 2025-07-21 12:24:17 0.0001344891 116.0 (m) DEBRIS
DMSP 5D-2 F13 DEB SSO 2024-11-09 15:16:34 0.0003237251 498.0 (m) DEBRIS
CZ-6A DEB LEO 2024-10-29 16:15:54 0.0001672549 450.0 (m) DEBRIS

Associated space launch

Earth observation satellite

DELTA 1 DEB was lifted into orbit during the mission ‘Delta 2910 | Landsat 2’, on board a Delta 2910 space rocket.

The launch took place on Jan. 22, 1975, 5:55 p.m. from Space Launch Complex 2W.

For more information about the launch, click the button.

Launch to space Delta 2910 | Landsat 2
Delta 2910 | Landsat 2

Agency: N/A

Status: Launch Successful

Launch date: Jan. 22, 1975, 5:55 p.m. UTC

Rocket: Delta 2910

Launch pad: Space Launch Complex 2W

Location: Vandenberg SFB, CA, USA

...

Latest news about this satellite

There are no fresh news available about this satellite. Check back as we update our databases every day.


Newsletter sign-up

Weekly statistics, charts and insights to help you stay on top of the space industry.